Preview of NWS' New Version of Forecast
This preview is not operational and should not be used for support decisions.

Regional Weather Roundup (RWR)

Issued by National Weather Service (NWS)

                            
000
ASUS46 KSEW 181410
RWRWA 

WASHINGTON REGIONAL WEATHER ROUNDUP
NATIONAL WEATHER SERVICE SEATTLE WA
600 AM PST MON FEB 18 2019

NOTE:"FAIR" INDICATES FEW OR NO CLOUDS BELOW 12,000 FEET WITH NO 
SIGNIFICANT WEATHER AND/OR OBSTRUCTIONS TO VISIBILITY.

WAZ507-509-555>559-181500-
SEATTLE, TACOMA, EVERETT, AND VICINITY
  
CITY           SKY/WX    TMP DP  RH WIND       PRES   REMARKS
EVERETT        CLOUDY    33  33 100 CALM      30.36S                  
BOEING FIELD   CLOUDY    35  32  88 SE7       30.39R                  
RENTON         CLOUDY    35  31  85 SE3       30.39R                  
SEATAC AIRPORT CLOUDY    36  33  89 SE5       30.37R                  
JBLM-MCCHORD   CLOUDY    34  34 100 CALM      30.38R                  
PUYALLUP       CLOUDY    34  34 100 CALM      30.37R FOG              
BREMERTON      CLOUDY    32  32 100 CALM      30.37R                  
JBLM-FT LEWIS  NOT AVBL                                               
TACOMA NARROWS CLOUDY    36  35  96 S3        30.38R                  
$$
 
WAZ001-503-506-510-514-515-181500-
NORTH INTERIOR
  
CITY           SKY/WX    TMP DP  RH WIND       PRES   REMARKS
BELLINGHAM     PTCLDY    29  18  63 CALM      30.38S                  
FRIDAY HARBOR  CLOUDY    32  25  75 CALM      30.39S                  
EASTSOUND      CLOUDY    34  25  69 CALM      30.38S                  
PORT ANGELES   CLOUDY    34  33  96 SW3       30.38R                  
EDIZ HOOK      CLOUDY    39  29  66 CALM      30.39S                  
PORT TOWNSEND  CLOUDY    30  30 100 CALM      30.37S                  
NAS WHIDBEY    NOT AVBL                                               
ARLINGTON      CLOUDY    28  27  96 CALM      30.39R                  
BURLINGTON     CLOUDY    30  23  74 NE7       30.39S                  
$$
 
WAZ020-022-039-040-504-511-512-181500-
SOUTHWEST INTERIOR
  
CITY           SKY/WX    TMP DP  RH WIND       PRES   REMARKS
SHELTON        CLOUDY    31  29  92 CALM      30.36R                  
OLYMPIA        CLOUDY    31  30  96 CALM      30.39R                  
CHEHALIS       CLOUDY    34  34 100 SW5       30.38S                  
KELSO          CLOUDY    31  31 100 SE3       30.41S FOG              
VANCOUVER      FOG       31  30  96 NW3       30.40R VSB 1/4          
SCAPPOOSE, OR  FOG       30  28  92 CALM      30.40S VSB 1/4          
PORTLAND, OR   FOG       32  30  92 NW3       30.40S VSB 1/4          
$$
 
WAZ021-516-517-181500-
WASHINGTON COAST
  
CITY           SKY/WX    TMP DP  RH WIND       PRES   REMARKS
FORKS          CLOUDY    33  31  92 SE3       30.36S                  
HOQUIAM        CLOUDY    32  32 100 CALM      30.38R                  
ASTORIA, OR    CLOUDY    33  32  96 CALM      30.38S                  
$$
 
WAZ019-023-024-040-567>569-181500-
CASCADE MOUNTAINS AND COLUMBIA GORGE
  
CITY           SKY/WX    TMP DP  RH WIND       PRES   REMARKS
STAMPEDE PASS  CLOUDY    23  20  88 SW3       30.19R FOG              
TROUTDALE, OR  FOG       33  31  92 W6        30.40R VSB 1            
HOOD RIVER, OR FOG       32  32 100 CALM      30.37R VSB 1/2          
THE DALLES, OR CLOUDY    33  31  92 E5        30.39R FOG              
$$

WAZ026-027-041>044-520-521-181500-
EAST SLOPES
  
CITY           SKY/WX    TMP DP  RH WIND       PRES   REMARKS
OMAK           CLEAR     19   9  65 NW12      30.36S WCI   7          
WENATCHEE      CLOUDY    19  12  74 E5        30.35S                  
ELLENSBURG     CLOUDY    27  20  75 CALM      30.30S                  
YAKIMA         CLOUDY    25  21  85 W6        30.35R                  
SUNNYSIDE ARPT MOSUNNY   22  18  84 CALM      30.37R                  
YAKIMA TC      PTSUNNY   24  21  87 CALM      30.31S                  
$$

WAZ028-034-035-181500-
COLUMBIA BASIN
  
CITY           SKY/WX    TMP DP  RH WIND       PRES   REMARKS
EPHRATA        PTCLDY    19   8  62 NW8       30.34S                  
MOSES LAKE     CLEAR    N/A N/A N/A N5        30.36R                  
PASCO          CLEAR     19  16  88 W5        30.41R                  
RICHLAND ARPT  SUNNY     21  18  88 CALM      30.41R                  
HERMISTON, OR  CLOUDY    25  18  74 SE5       30.37S                  
$$

WAZ036>038-181500-
NORTHEAST WASHINGTON
  
CITY           SKY/WX    TMP DP  RH WIND       PRES   REMARKS
SPOKANE GEIGER PTCLDY    11   2  67 E3        30.26S                  
SPOKANE FELTS  CLEAR      8   3  80 CALM      30.31R                  
FAIRCHILD AFB  NOT AVBL                                               
COEURDALENE,ID CLEAR      5   0  79 NE14      30.27S WCI -12          
DEER PARK      CLEAR     -3  -7  82 NE3       30.28S                  
$$

WAZ029>033-181500-
SOUTHEAST WASHINGTON
  
CITY           SKY/WX    TMP DP  RH WIND       PRES   REMARKS
PULLMAN        CLEAR      8   2  76 N10       30.23R WCI  -6          
LEWISTON, ID   CLEAR     20  11  68 W10       30.29R WCI   9          
WALLA WALLA    CLOUDY    25  20  81 S7        30.33R                  
PENDLETON, OR  CLOUDY    24  20  84 CALM      30.31R                  
$$